www.pogodaiklimat.ru

Погода и климат >> Архив погоды >> Киргизия >> Бишкек


АРХИВ ПОГОДЫ в Бишкеке

Время (UTC), дата Ветер
(напр.,м/с)
 
Видим.   Явления Облачность Т
(С)
Тd
(С)
f
(%)
Тe
(С)
Тes
(С)
Комфортность P
(гПа)
Po
(гПа)
Тmin
(С)
Tmax
(С)
R
(мм)
R24
(мм)
S
(см)
12 12.11 З 1 2000 м снег 10/10 300 м
[Frnb Ns]
-6.8 -7.3 96 -9 -9 очень
холодно
1039.3 944.3
15 12.11 С 1 н/о снег 10/10 300 м
[]
-8.6 -8.9 98 -11 -11 очень
холодно
1041.4 945.5 -4.2
18 12.11 штиль 0 н/о слабый снег 10/10 300 м
[]
-9.5 -9.8 98 -10 -10 очень
холодно
1042.0 945.8 -4.2 8
21 12.11 штиль 0 н/о слабый снег 10/10 300 м
[Sc]
-11.2 -11.8 95 -11 -11 очень
холодно
1043.6 946.6
00 13.11 В 1 н/о слабый снег 10/10 300 м
[Sc]
-10.2 -10.8 95 -13 -13 очень
холодно
1043.2 946.6
03 13.11 штиль 0 20 км {снег} ясно -9.6 -10.8 91 -10 -10 очень
холодно
1042.0 945.7 15
06 13.11 З 2 20 км {снег} ясно -7.0 -10.8 74 -11 -7 очень
холодно
1040.6 945.4 2
09 13.11 ЮЗ 1 20 км ясно -3.8 -8.3 71 -6 -2 очень
холодно
1037.6 943.6
12 13.11 СЗ 1 20 км ясно -8.5 -11.3 80 -11 -11 очень
холодно
1039.7 944.0
15 13.11 штиль 0 н/о ясно -12.1 -13.4 90 -12 -12 очень
холодно
1041.6 944.3 -2.6
18 13.11 штиль 0 н/о ясно -11.5 -12.8 90 -12 -12 очень
холодно
1040.5 943.6 -2.6
21 13.11 штиль 0 н/о туман ?/? -11.5 -12.1 95 -12 -12 очень
холодно
1039.5 942.7
00 14.11 штиль 0 н/о дымка {туман} ?/? -11.7 -12.3 95 -12 -12 очень
холодно
1038.7 942.0
03 14.11 С 1 10 км дым 10/0
[Ci fib]
-11.9 -12.5 95 -14 -14 очень
холодно
1038.5 941.7 15
06 14.11 СЗ 1 1000 м дымка ясно -10.7 -11.3 95 -13 -8 очень
холодно
1038.3 942.0
09 14.11 СЗ 1 10 км ясно -8.0 -10.7 81 -10 -7 очень
холодно
1036.9 941.6
12 14.11 С 1 10 км 4/0
[Ci fib]
-10.3 -12.3 85 -13 -13 очень
холодно
1039.3 943.0
15 14.11 штиль 0 н/о ясно -13.5 -14.8 90 -14 -14 очень
холодно
1040.5 943.0 -6.3
18 14.11 штиль 0 н/о 10/0
[Ci fib]
-13.7 -14.3 95 -14 -14 очень
холодно
1040.3 942.7 -6.3
21 14.11 штиль 0 н/о 10/0
[Ci fib]
-14.0 -14.6 95 -14 -14 очень
холодно
1040.0 942.4
00 15.11 штиль 0 н/о 10/0
[Ci fib]
-13.5 -14.1 95 -14 -14 очень
холодно
1040.1 942.6
03 15.11 штиль 0 1000 м дымка 4/0
[Ci fib]
-14.4 -15.0 95 -14 -14 очень
холодно
1041.6 943.6 15
06 15.11 З 1 4000 м дымка ясно -7.1 -10.9 74 -9 -4 очень
холодно
1040.0 944.6
09 15.11 СЗ 1 10 км дым ясно -4.7 -10.0 66 -7 -3 очень
холодно
1039.7 945.3
12 15.11 С 1 10 км дым ясно -8.1 -11.3 78 -10 -10 очень
холодно
1042.0 946.3
15 15.11 штиль 0 н/о ясно -11.8 -13.1 90 -12 -12 очень
холодно
1043.8 946.5 -3.6
18 15.11 Ю 1 н/о ясно -12.1 -13.4 90 -14 -14 очень
холодно
1043.0 945.7 -3.6
21 15.11 штиль 0 н/о ясно -12.5 -13.8 90 -13 -13 очень
холодно
1043.2 945.7
00 16.11 штиль 0 н/о ясно -12.5 -13.8 90 -13 -13 очень
холодно
1043.2 945.7
03 16.11 штиль 0 20 км ясно -11.2 -12.5 90 -11 -11 очень
холодно
1043.2 946.3 14
06 16.11 штиль 0 10 км ясно -2.3 -9.1 60 -3 +3 очень
холодно
1039.6 946.0
09 16.11 З 1 10 км ясно +0.7 -7.0 56 -1 +3 холодно 1037.2 944.8
12 16.11 штиль 0 10 км дым ясно -3.1 -8.1 68 -4 -4 очень
холодно
1038.4 944.6
15 16.11 штиль 0 н/о туман ?/? -7.7 -9.1 90 -8 -8 очень
холодно
1039.3 943.9 +1.3
18 16.11 штиль 0 н/о туман ясно -9.4 -11.0 88 -10 -10 очень
холодно
1037.7 941.9 +1.3
21 16.11 штиль 0 н/о ясно -9.7 -12.8 78 -10 -10 очень
холодно
1035.7 939.9
00 17.11 Ю 1 н/о {туман} ясно -10.3 -13.1 80 -13 -13 очень
холодно
1034.0 938.2
03 17.11 Ю 1 20 км ясно -9.8 -11.9 85 -12 -12 очень
холодно
1032.4 936.9 9
06 17.11 штиль 0 10 км дым ясно +2.4 -9.0 43 +2 +8 прохладно 1026.1 935.3
09 17.11 С 1 10 км дым 3/0
[Ci fib]
+2.9 -6.4 50 +2 +5 прохладно 1024.1 933.6
12 17.11 СВ 1 10 км дым 10/0
[Ci fib]
-0.9 -5.5 71 -3 -3 очень
холодно
1025.6 933.8
15 17.11 штиль 0 н/о 8/0
[Ac trans]
-3.0 -4.3 91 -4 -4 холодно 1026.7 934.1 +3.8
18 17.11 штиль 0 н/о ясно -6.0 -7.9 86 -7 -7 очень
холодно
1026.4 932.8 +3.8
21 17.11 Ю 1 н/о ясно -6.6 -9.4 80 -9 -9 очень
холодно
1027.2 933.3
00 18.11 Ю 1 н/о ясно -7.1 -10.5 77 -9 -9 очень
холодно
1028.4 934.3
03 18.11 Ю 1 20 км ясно -5.4 -9.2 75 -8 -7 очень
холодно
1029.6 935.9 8
06 18.11 ЮВ 1 20 км ясно +1.6 -9.8 42 +1 +1 холодно 1025.9 936.7
09 18.11 З 2 20 км 3/0
[Ac trans]
+6.1 -6.4 40 +5 +7 по сезону 1026.6 936.9
12 18.11 СЗ 1 20 км 4/0
[Ac trans]
+0.6 -7.2 56 -1 -1 холодно 1029.8 938.1
15 18.11 Ю 1 н/о ясно -1.8 -4.9 79 -4 -4 холодно 1031.0 938.4 +9.6
18 18.11 Ю 1 н/о ясно -5.1 -8.0 80 -7 -7 очень
холодно
1031.3 937.5 +9.6
21 18.11 штиль 0 н/о ясно -6.8 -9.2 83 -8 -8 очень
холодно
1031.5 937.1
00 19.11 Ю 1 н/о ясно -5.0 -9.0 73 -7 -7 холодно 1030.8 937.1
03 19.11 Ю 1 20 км 8/0
[Ac trans Ci fib]
-3.0 -8.8 64 -5 -5 очень
холодно
1030.8 937.7 6
06 19.11 штиль 0 20 км 3/0
[Ac trans]
+6.5 -8.5 33 +6 +11 по сезону 1027.6 937.9

 

Местоположение метеостанции Бишкек (город Бишкек, Киргизия): широта 42.85 долгота 74.53 высота над уровнем моря 760 м.

В архиве по умолчанию представлена погода в Бишкеке за последнюю неделю. Архивные данные за месяц целиком и за предыдущие месяцы, начиная с января 2011 года, Вы можете получить, выбрав интересующий диапазон дат из раскрывающегося списка и нажав кнопку "Ввод!".


*Определитесь, кто Вы:
робот инопланетянин человек

Внимание! Время в таблицах - всемирное. Для получения местного времени необходимо прибавить поправку, которая в Бишкеке равна 6 ч.

Смотрите также архив погоды в соседних городах и на ближайших метеорологических станциях:

Погода в Байтике (Чуйская область, Киргизия) (22 км)
Погода в Иссык-Ате (город Бишкек, Киргизия) (28 км)
Погода в Яны-Жере (Чуйская область, Киргизия) (46 км)
Погода в Бериктасе (Жамбылская область, Казахстан) (49 км)
Погода в Кара-Балте (Чуйская область, Киргизия) (58 км)
Погода в Тео-Ашуу (Чуйская область, Киргизия) (58 км)
Погода в Токмоке (Чуйская область, Киргизия) (61 км)
Погода в Кордае (Жамбылская область, Казахстан) (66 км)
Погода в Сусамыре (Чуйская область, Киргизия) (90 км)
Погода в Отаре (Жамбылская область, Казахстан) (96 км)

Пояснения к столбцам:

Ветер - указаны скорость ветра в м/с - средняя за 10 мин, порывы в срок и между сроками (в фигурных скобках) и направление, откуда дует ветер: С - северный, СВ - северо-восточный, В - восточный, ЮВ - юго-восточный, Ю - южный, ЮЗ - юго-западный, З - западный, СЗ - северо-западный.
Видимость - горизонтальная дальность видимости в метрах или километрах. При видимости от 1 до 10 км при отсутствии осадков обычно наблюдается дымка, при ухудшении видимости до 1 км и менее - туман. В сухую погоду видимость может ухудшаться дымом, пылью или мглою.
Явления - указаны атмосферные явления, наблюдавшиеся в срок или в последний час перед сроком; фигурными скобками обозначены явления, наблюдавшиеся между сроками (за 1-3 часа до срока); квадратными скобками обозначены град или гололедные отложения с указанием их диаметра в мм.
Облачность - указаны через наклонную черту общая и нижняя облачность в баллах и высота нижней границы облаков в метрах; квадратными скобками обозначены формы облаков: Ci - перистые, Cs - перисто-слоистые, Cc - перисто-кучевые, Ac - высококучевые, As - высокослоистые, Sc - слоисто-кучевые, Ns - слоисто-дождевые, Cu - кучевые, Cb - кучево-дождевые. Подробнее классификацию облаков см. в Атласе облаков (PDF).
T - Температура воздуха - температура, измеренная на высоте 2 м над землей.
Td - Температура точки росы - температура, при понижении до которой содержащийся в воздухе водяной пар достигнет насыщения.
f - Относительная влажность воздуха - влажноcть воздуха, измеренная на высоте 2 м над землей.
Te - Эффективная температура - температура, которую ощущает одетый по сезону человек в тени. Характеристика душности погоды. При расчете учитывается влияние влажности воздуха и скорости ветра на теплоощущения человека.
Tes - Эффективная температура на солнце - температура, которую ощущает человек, с поправкой на солнечный нагрев. Характеристика знойности погоды. Зависит от высоты солнца над горизонтом, облачности и скорости ветра. Ночью, в пасмурную погоду, а также при ветре 12 м/с и более поправка равна нулю.
P - Атмосферное давление - приведенное к уровню моря атмосферное давление.
Po - Атмосферное давление - измеренное на уровне метеостанции атмосферное давление.
Tmin - Минимальная температура - минимум температуры воздуха на высоте 2 м над землей.
Tmax - Максимальная температура - максимум температуры воздуха на высоте 2 м над землей.
R - Количество осадков - Количество выпавших осадков за период времени, мм. При наведении курсора мыши на число - период времени, за который выпало указанное количество осадков.
R24 - Количество осадков - Количество выпавших осадков за 24 часа, мм.
S - Снежный покров - Высота снежного покрова, см. При наведении курсора мыши на число - состояние снежного покрова и степень покрытия местности в баллах.